Back to catalog

STARLINK-37731

AliveCommunicationsSSO
NORAD 69304·PAYLOAD·🇺🇸 United States

Launched May 30, 2026 from Vandenberg Space Force Base

Loading…

Next Passes (next 24 hours)

TLE

FreshSource: CelesTrak SupGP

Epoch: Sep 14, 2026, 16:14 UTC

1 69304C 26119J   26257.67687500 -.00054706  00000+0 -16982-2 0  2570
2 69304  97.2825 282.4787 0001261 105.8242 120.8042 15.33466497    13

Track STARLINK-37731 in real time with AllMySat

Download on the App Store